PAL422 RPLL-RJTT

Flight info

Callsign PAL422
Flight time 3h 17m
Altitude 39000
Route CAB2R CAB N884 ALBAX Y533 AZAMA Y57 SUKBO Y571 BILLY Y21 AKSEL
Aircraft A35K/H-SDE2E3GHIJ3J4J5LM1ORWXY/LB1D1

Departure

Time 2026-05-05 01:19
Airport Ninoy Aquino International Airport (RPLL)

Arrival

Time 2026-05-05 04:36
Airport Tokyo Haneda International Airport (RJTT)
Time Latitude Longitude Altitude Speed Heading
2026-05-05 01:06 14.50330 121.00418 66 ft 0 kts 20°
2026-05-05 01:12 14.50321 121.00415 59 ft 4 kts 19°
2026-05-05 01:12 14.50297 121.00406 64 ft 2 kts 20°
2026-05-05 01:13 14.50277 121.00402 64 ft 4 kts 338°
2026-05-05 01:13 14.50261 121.00418 64 ft 4 kts 282°
2026-05-05 01:13 14.50262 121.00440 64 ft 1 kts 240°
2026-05-05 01:13 14.50274 121.00462 64 ft 4 kts 240°
2026-05-05 01:14 14.50284 121.00479 64 ft 0 kts 240°
2026-05-05 01:17 14.50283 121.00477 64 ft 1 kts 240°
2026-05-05 01:17 14.50270 121.00453 64 ft 9 kts 241°
2026-05-05 01:18 14.50215 121.00358 64 ft 18 kts 231°
2026-05-05 01:18 14.50120 121.00354 68 ft 20 kts 154°
2026-05-05 01:18 14.50031 121.00429 66 ft 10 kts 89°
2026-05-05 01:18 14.50137 121.00640 62 ft 76 kts 60°
2026-05-05 01:19 14.50564 121.01411 90 ft 167 kts 59°
2026-05-05 01:19 14.51178 121.02515 919 ft 182 kts 61°
2026-05-05 01:19 14.51817 121.03673 2043 ft 190 kts 62°
2026-05-05 01:19 14.52489 121.04888 2499 ft 203 kts 61°
2026-05-05 01:20 14.53227 121.06220 2759 ft 224 kts 61°
2026-05-05 01:20 14.54026 121.07661 3077 ft 242 kts 61°
2026-05-05 01:20 14.54876 121.09192 3645 ft 248 kts 62°
2026-05-05 01:20 14.55739 121.10747 4270 ft 251 kts 62°
2026-05-05 01:21 14.56714 121.12258 4866 ft 257 kts 51°
2026-05-05 01:21 14.58220 121.13293 5430 ft 269 kts 21°
2026-05-05 01:21 14.60115 121.13532 5998 ft 278 kts
2026-05-05 01:21 14.62071 121.13521 6539 ft 284 kts
2026-05-05 01:22 14.64056 121.13504 7093 ft 288 kts
2026-05-05 01:22 14.66073 121.13499 7685 ft 290 kts
2026-05-05 01:22 14.68105 121.13504 8229 ft 294 kts
2026-05-05 01:22 14.70138 121.13398 8798 ft 300 kts 353°
2026-05-05 01:23 14.72160 121.12820 9402 ft 304 kts 343°
2026-05-05 01:23 14.74167 121.12090 9975 ft 307 kts 342°
2026-05-05 01:23 14.76210 121.11340 10341 ft 318 kts 342°
2026-05-05 01:23 14.78346 121.10564 10571 ft 332 kts 342°
2026-05-05 01:24 14.80578 121.09758 10793 ft 346 kts 342°
2026-05-05 01:24 14.82891 121.08925 11019 ft 359 kts 342°
2026-05-05 01:24 14.85291 121.08061 11281 ft 368 kts 342°
2026-05-05 01:24 14.87698 121.07195 11682 ft 372 kts 342°
2026-05-05 01:25 14.90203 121.06497 11907 ft 374 kts 353°
2026-05-05 01:25 14.92798 121.06243 12254 ft 375 kts 358°
2026-05-05 01:25 14.95405 121.06076 12747 ft 376 kts 358°
2026-05-05 01:25 14.98024 121.05905 13225 ft 377 kts 357°
2026-05-05 01:26 15.00642 121.05730 13680 ft 379 kts 357°
2026-05-05 01:26 15.03284 121.05551 14082 ft 381 kts 356°
2026-05-05 01:26 15.05940 121.05369 14409 ft 384 kts 356°
2026-05-05 01:26 15.08621 121.05184 14782 ft 387 kts 356°
2026-05-05 01:27 15.11285 121.04999 15145 ft 389 kts 356°
2026-05-05 01:27 15.14001 121.04811 15529 ft 391 kts 356°
2026-05-05 01:27 15.16732 121.04622 15895 ft 394 kts 356°
2026-05-05 01:27 15.19482 121.04431 16250 ft 397 kts 356°
2026-05-05 01:28 15.22252 121.04239 16607 ft 400 kts 356°
2026-05-05 01:28 15.25037 121.04045 17001 ft 402 kts 356°
2026-05-05 01:28 15.27831 121.03851 17413 ft 403 kts 356°
2026-05-05 01:28 15.30641 121.03656 17733 ft 408 kts 356°
2026-05-05 01:29 15.33496 121.03457 18093 ft 411 kts 356°
2026-05-05 01:29 15.36347 121.03259 18475 ft 411 kts 356°
2026-05-05 01:29 15.39167 121.03063 18828 ft 412 kts 356°
2026-05-05 01:29 15.42038 121.02863 19136 ft 414 kts 356°
2026-05-05 01:30 15.44926 121.02710 19439 ft 417 kts 359°
2026-05-05 01:30 15.47836 121.02935 19710 ft 420 kts
2026-05-05 01:30 15.50668 121.03710 20014 ft 422 kts 20°
2026-05-05 01:30 15.53391 121.04862 20351 ft 424 kts 24°
2026-05-05 01:31 15.56073 121.06149 20659 ft 426 kts 26°
2026-05-05 01:31 15.58745 121.07502 20953 ft 428 kts 26°
2026-05-05 01:31 15.61428 121.08881 21280 ft 430 kts 26°
2026-05-05 01:31 15.64120 121.10260 21571 ft 432 kts 26°
2026-05-05 01:32 15.66838 121.11638 21747 ft 438 kts 26°
2026-05-05 01:32 15.69559 121.13004 22074 ft 439 kts 25°
2026-05-05 01:32 15.72313 121.14377 22395 ft 440 kts 25°
2026-05-05 01:32 15.75094 121.15759 22626 ft 444 kts 25°
2026-05-05 01:33 15.77875 121.17139 22954 ft 445 kts 25°
2026-05-05 01:33 15.80678 121.18530 23241 ft 447 kts 25°
2026-05-05 01:33 15.83493 121.19928 23479 ft 449 kts 25°
2026-05-05 01:33 15.86319 121.21332 23726 ft 451 kts 25°
2026-05-05 01:34 15.89163 121.22747 23946 ft 452 kts 25°
2026-05-05 01:34 15.92008 121.24163 24188 ft 454 kts 25°
2026-05-05 01:34 15.94860 121.25583 24411 ft 456 kts 25°
2026-05-05 01:34 15.97728 121.27010 24652 ft 457 kts 25°
2026-05-05 01:35 16.00599 121.28440 24861 ft 458 kts 25°
2026-05-05 01:35 16.03439 121.29855 25089 ft 460 kts 25°
2026-05-05 01:35 16.06329 121.31296 25312 ft 461 kts 25°
2026-05-05 01:35 16.09232 121.32745 25526 ft 463 kts 25°
2026-05-05 01:36 16.12144 121.34197 25736 ft 464 kts 25°
2026-05-05 01:36 16.15062 121.35652 25969 ft 466 kts 25°
2026-05-05 01:36 16.17994 121.37115 26172 ft 468 kts 25°
2026-05-05 01:36 16.20935 121.38584 26400 ft 469 kts 25°
2026-05-05 01:37 16.23893 121.40061 26622 ft 471 kts 25°
2026-05-05 01:37 16.26858 121.41543 26819 ft 473 kts 25°
2026-05-05 01:37 16.29826 121.43025 27048 ft 474 kts 25°
2026-05-05 01:37 16.32807 121.44516 27273 ft 476 kts 25°
2026-05-05 01:38 16.34784 121.45504 27411 ft 477 kts 25°
2026-05-05 01:38 16.38757 121.47492 27709 ft 479 kts 25°
2026-05-05 01:38 16.41772 121.49001 27924 ft 481 kts 25°
2026-05-05 01:38 16.43813 121.50023 28074 ft 482 kts 25°
2026-05-05 01:39 16.46799 121.51517 28276 ft 483 kts 25°
2026-05-05 01:39 16.49838 121.53039 28449 ft 486 kts 25°
2026-05-05 01:39 16.52894 121.54570 28673 ft 487 kts 25°
2026-05-05 01:39 16.55957 121.56106 28890 ft 489 kts 25°
2026-05-05 01:40 16.59028 121.57646 29103 ft 491 kts 25°
2026-05-05 01:40 16.62109 121.59192 29325 ft 492 kts 25°
2026-05-05 01:40 16.65203 121.60745 29541 ft 494 kts 24°
2026-05-05 01:40 16.68312 121.62305 29778 ft 496 kts 24°
2026-05-05 01:41 16.71434 121.63873 29987 ft 498 kts 24°
2026-05-05 01:41 16.74567 121.65447 30198 ft 500 kts 24°
2026-05-05 01:41 16.77713 121.67028 30320 ft 503 kts 24°
2026-05-05 01:41 16.80833 121.68596 30516 ft 505 kts 24°
2026-05-05 01:42 16.84000 121.70188 30755 ft 506 kts 24°
2026-05-05 01:42 16.87178 121.71787 30973 ft 507 kts 24°
2026-05-05 01:42 16.90364 121.73391 31189 ft 509 kts 24°
2026-05-05 01:42 16.93570 121.75005 31414 ft 510 kts 24°
2026-05-05 01:43 16.96760 121.76647 31616 ft 512 kts 25°
2026-05-05 01:43 16.99934 121.78328 31824 ft 514 kts 25°
2026-05-05 01:43 17.03130 121.80041 32028 ft 515 kts 25°
2026-05-05 01:43 17.06332 121.81761 32189 ft 517 kts 25°
2026-05-05 01:44 17.09507 121.83463 32386 ft 518 kts 25°
2026-05-05 01:44 17.12722 121.85181 32586 ft 520 kts 25°
2026-05-05 01:44 17.15953 121.86904 32774 ft 521 kts 25°
2026-05-05 01:44 17.19191 121.88628 32954 ft 522 kts 24°
2026-05-05 01:45 17.22430 121.90352 33140 ft 524 kts 24°
2026-05-05 01:45 17.25681 121.92082 33382 ft 523 kts 24°
2026-05-05 01:45 17.28933 121.93815 33677 ft 522 kts 24°
2026-05-05 01:45 17.32167 121.95538 33975 ft 522 kts 24°
2026-05-05 01:46 17.35401 121.97262 34248 ft 521 kts 24°
2026-05-05 01:46 17.38585 121.98960 34512 ft 520 kts 24°
2026-05-05 01:46 17.41804 122.00677 34811 ft 519 kts 24°
2026-05-05 01:46 17.45028 122.02398 35105 ft 517 kts 24°
2026-05-05 01:47 17.48234 122.04110 35362 ft 517 kts 24°
2026-05-05 01:47 17.51434 122.05819 35544 ft 517 kts 24°
2026-05-05 01:47 17.54634 122.07530 35799 ft 515 kts 24°
2026-05-05 01:47 17.57831 122.09238 36093 ft 514 kts 24°
2026-05-05 01:48 17.61014 122.10940 36338 ft 514 kts 24°
2026-05-05 01:48 17.64206 122.12646 36478 ft 515 kts 24°
2026-05-05 01:48 17.67400 122.14355 36705 ft 514 kts 24°
2026-05-05 01:48 17.70583 122.16060 36979 ft 513 kts 24°
2026-05-05 01:49 17.73759 122.17761 37209 ft 513 kts 24°
2026-05-05 01:49 17.76901 122.19445 37435 ft 513 kts 24°
2026-05-05 01:49 17.80083 122.21151 37681 ft 512 kts 24°
2026-05-05 01:49 17.83252 122.22850 37953 ft 511 kts 24°
2026-05-05 01:50 17.86427 122.24546 38138 ft 512 kts 23°
2026-05-05 01:50 17.89623 122.26215 38363 ft 511 kts 23°
2026-05-05 01:50 17.92817 122.27865 38600 ft 511 kts 22°
2026-05-05 01:50 17.95964 122.29486 38783 ft 510 kts 22°
2026-05-05 01:51 17.99152 122.31131 38941 ft 510 kts 22°
2026-05-05 01:51 18.02344 122.32782 38976 ft 511 kts 23°
2026-05-05 01:51 18.08734 122.36102 38973 ft 512 kts 23°
2026-05-05 01:52 18.15129 122.39434 38968 ft 512 kts 22°
2026-05-05 01:52 18.21521 122.42769 38970 ft 512 kts 22°
2026-05-05 01:53 18.27907 122.46102 38970 ft 512 kts 22°
2026-05-05 01:53 18.34294 122.49438 38980 ft 512 kts 23°
2026-05-05 01:54 18.40648 122.52759 38977 ft 513 kts 22°
2026-05-05 01:54 18.47059 122.56112 38971 ft 514 kts 22°
2026-05-05 01:55 18.53472 122.59470 38982 ft 515 kts 22°
2026-05-05 01:55 18.59878 122.62827 38976 ft 515 kts 22°
2026-05-05 01:56 18.66260 122.66175 38977 ft 514 kts 22°
2026-05-05 01:56 18.72685 122.69547 38977 ft 515 kts 22°
2026-05-05 01:57 18.79102 122.72918 38977 ft 515 kts 22°
2026-05-05 01:57 18.85518 122.76292 38980 ft 515 kts 22°
2026-05-05 01:58 18.91951 122.79678 38979 ft 515 kts 22°
2026-05-05 01:58 18.98326 122.83036 38979 ft 515 kts 22°
2026-05-05 01:59 19.04751 122.86423 38979 ft 515 kts 22°
2026-05-05 01:59 19.11174 122.89812 38979 ft 515 kts 22°
2026-05-05 02:00 19.17589 122.93201 38981 ft 515 kts 22°
2026-05-05 02:00 19.23995 122.96586 38982 ft 515 kts 22°
2026-05-05 02:01 19.30374 122.99960 38980 ft 515 kts 22°
2026-05-05 02:01 19.36788 123.03356 38979 ft 515 kts 22°
2026-05-05 02:02 19.43217 123.06763 38981 ft 515 kts 22°
2026-05-05 02:02 19.49588 123.10142 38982 ft 515 kts 22°
2026-05-05 02:03 19.56004 123.13548 38985 ft 515 kts 22°
2026-05-05 02:03 19.62414 123.16954 38985 ft 515 kts 22°
2026-05-05 02:04 19.68820 123.20361 38984 ft 515 kts 22°
2026-05-05 02:04 19.75220 123.23768 38982 ft 515 kts 22°
2026-05-05 02:05 19.81635 123.27186 38985 ft 515 kts 22°
2026-05-05 02:05 19.88046 123.30605 38985 ft 515 kts 22°
2026-05-05 02:06 19.94417 123.34006 38990 ft 516 kts 22°
2026-05-05 02:06 20.00850 123.37442 38987 ft 517 kts 22°
2026-05-05 02:07 20.07279 123.40880 38990 ft 517 kts 22°
2026-05-05 02:07 20.13730 123.44334 38989 ft 517 kts 22°
2026-05-05 02:08 20.20161 123.47779 38992 ft 518 kts 22°
2026-05-05 02:08 20.26560 123.51210 38993 ft 518 kts 22°
2026-05-05 02:09 20.32999 123.54667 38991 ft 518 kts 22°
2026-05-05 02:09 20.39483 123.58150 38990 ft 518 kts 22°
2026-05-05 02:10 20.45882 123.61592 38991 ft 518 kts 22°
2026-05-05 02:10 20.52321 123.65058 38990 ft 517 kts 22°
2026-05-05 02:11 20.58749 123.68521 38997 ft 517 kts 22°
2026-05-05 02:11 20.65142 123.71969 38996 ft 517 kts 22°
2026-05-05 02:12 20.74783 123.77174 38996 ft 517 kts 22°
2026-05-05 02:13 20.81216 123.80652 39000 ft 517 kts 22°
2026-05-05 02:13 20.87631 123.84123 38998 ft 517 kts 22°
2026-05-05 02:14 20.94052 123.87601 39001 ft 517 kts 22°
2026-05-05 02:14 21.00473 123.91083 39001 ft 517 kts 22°
2026-05-05 02:15 21.06873 123.94551 39001 ft 517 kts 22°
2026-05-05 02:15 21.13302 123.98026 39001 ft 517 kts 22°
2026-05-05 02:16 21.19734 124.01507 39003 ft 518 kts 22°
2026-05-05 02:16 21.26171 124.04997 39003 ft 518 kts 22°
2026-05-05 02:17 21.32565 124.08468 39005 ft 518 kts 22°
2026-05-05 02:17 21.39006 124.11968 39004 ft 519 kts 22°
2026-05-05 02:18 21.45447 124.15473 39005 ft 518 kts 22°
2026-05-05 02:18 21.51885 124.18978 39006 ft 518 kts 22°
2026-05-05 02:19 21.58326 124.22489 39000 ft 518 kts 22°
2026-05-05 02:19 21.64716 124.25975 39013 ft 518 kts 22°
2026-05-05 02:20 21.71146 124.29487 39009 ft 518 kts 22°
2026-05-05 02:20 21.77576 124.33002 39008 ft 518 kts 22°
2026-05-05 02:21 21.84003 124.36519 39009 ft 518 kts 22°
2026-05-05 02:21 21.90242 124.39936 39018 ft 518 kts 22°
2026-05-05 02:22 21.96665 124.43459 39011 ft 518 kts 22°
2026-05-05 02:22 22.03090 124.46985 39013 ft 518 kts 22°
2026-05-05 02:23 22.09467 124.50489 39012 ft 518 kts 22°
2026-05-05 02:23 22.15886 124.54019 39018 ft 517 kts 22°
2026-05-05 02:24 22.22300 124.57551 39018 ft 517 kts 22°
2026-05-05 02:24 22.28715 124.61087 39004 ft 517 kts 22°
2026-05-05 02:25 22.35122 124.64622 39016 ft 517 kts 22°
2026-05-05 02:25 22.41530 124.68160 39018 ft 517 kts 22°
2026-05-05 02:26 22.47911 124.71688 39021 ft 518 kts 22°
2026-05-05 02:26 22.53241 124.74638 39027 ft 518 kts 22°
2026-05-05 02:27 22.59649 124.78188 39049 ft 517 kts 22°
2026-05-05 02:27 22.66068 124.81747 39022 ft 518 kts 22°
2026-05-05 02:28 22.72491 124.85312 39020 ft 519 kts 22°
2026-05-05 02:28 22.78918 124.88884 39027 ft 519 kts 22°
2026-05-05 02:29 22.85353 124.92463 39034 ft 519 kts 22°
2026-05-05 02:29 22.91797 124.96051 39026 ft 521 kts 22°
2026-05-05 02:30 22.98221 124.99633 39021 ft 521 kts 22°
2026-05-05 02:30 23.04672 125.03234 39027 ft 520 kts 22°
2026-05-05 02:31 23.11119 125.06836 39034 ft 521 kts 22°
2026-05-05 02:31 23.17586 125.10451 39032 ft 523 kts 22°
2026-05-05 02:32 23.24028 125.14059 39034 ft 523 kts 22°
2026-05-05 02:32 23.30501 125.17688 39044 ft 523 kts 22°
2026-05-05 02:33 23.36995 125.21331 39038 ft 525 kts 22°
2026-05-05 02:33 23.43451 125.24958 39032 ft 525 kts 22°
2026-05-05 02:34 23.49949 125.28613 39042 ft 525 kts 22°
2026-05-05 02:34 23.56378 125.32420 39044 ft 531 kts 29°
2026-05-05 02:35 23.62244 125.37407 39036 ft 542 kts 35°
2026-05-05 02:35 23.68036 125.42774 39039 ft 549 kts 36°
2026-05-05 02:36 23.73856 125.48246 39046 ft 552 kts 36°
2026-05-05 02:36 23.79680 125.53705 39043 ft 551 kts 36°
2026-05-05 02:37 23.85480 125.59126 39035 ft 550 kts 36°
2026-05-05 02:37 23.91309 125.64573 39046 ft 550 kts 36°
2026-05-05 02:38 23.97106 125.69996 39062 ft 551 kts 36°
2026-05-05 02:38 24.02944 125.75463 39036 ft 552 kts 36°
2026-05-05 02:39 24.08738 125.80898 39045 ft 552 kts 36°
2026-05-05 02:39 24.14562 125.86370 39055 ft 551 kts 36°
2026-05-05 02:40 24.20385 125.91846 39059 ft 553 kts 36°
2026-05-05 02:40 24.26233 125.97351 39059 ft 553 kts 36°
2026-05-05 02:41 24.32076 126.02860 39058 ft 554 kts 36°
2026-05-05 02:41 24.37918 126.08376 39071 ft 554 kts 36°
2026-05-05 02:42 24.43735 126.13873 39067 ft 555 kts 36°
2026-05-05 02:42 24.49588 126.19411 39068 ft 556 kts 36°
2026-05-05 02:43 24.55449 126.24966 39067 ft 556 kts 36°
2026-05-05 02:43 24.61306 126.30523 39072 ft 556 kts 36°
2026-05-05 02:44 24.67187 126.36110 39074 ft 557 kts 36°
2026-05-05 02:44 24.73052 126.41689 39078 ft 557 kts 36°
2026-05-05 02:45 24.78877 126.47238 39085 ft 558 kts 36°
2026-05-05 02:45 24.84764 126.52851 39089 ft 558 kts 36°
2026-05-05 02:46 24.90633 126.58456 39086 ft 558 kts 36°
2026-05-05 02:46 24.96455 126.64024 39112 ft 558 kts 36°
2026-05-05 02:47 25.02328 126.69646 39096 ft 560 kts 36°
2026-05-05 02:47 25.08213 126.75287 39083 ft 560 kts 36°
2026-05-05 02:48 25.14089 126.80929 39099 ft 559 kts 36°
2026-05-05 02:48 25.19960 126.86574 39104 ft 560 kts 36°
2026-05-05 02:49 25.25852 126.92243 39102 ft 562 kts 36°
2026-05-05 02:49 25.31702 126.97882 39108 ft 562 kts 36°
2026-05-05 02:50 25.37597 127.03572 39109 ft 562 kts 36°
2026-05-05 02:50 25.43495 127.09271 39109 ft 563 kts 36°
2026-05-05 02:51 25.49403 127.14989 39110 ft 564 kts 36°
2026-05-05 02:51 25.55304 127.20707 39143 ft 564 kts 36°
2026-05-05 02:52 25.61209 127.26436 39110 ft 565 kts 36°
2026-05-05 02:52 25.67083 127.32144 39113 ft 565 kts 36°
2026-05-05 02:53 25.73002 127.37904 39115 ft 565 kts 37°
2026-05-05 02:53 25.78908 127.43658 39116 ft 565 kts 37°
2026-05-05 02:54 25.84812 127.49419 39117 ft 565 kts 36°
2026-05-05 02:54 25.90678 127.55153 39115 ft 563 kts 36°
2026-05-05 02:55 25.96560 127.60906 39120 ft 564 kts 37°
2026-05-05 02:55 26.02470 127.66695 39106 ft 566 kts 37°
2026-05-05 02:56 26.08377 127.72490 39094 ft 566 kts 37°
2026-05-05 02:56 26.14282 127.78294 39146 ft 565 kts 37°
2026-05-05 02:57 26.20176 127.84014 39145 ft 565 kts 35°
2026-05-05 02:57 26.26236 127.89622 39143 ft 565 kts 34°
2026-05-05 02:58 26.32303 127.95219 39140 ft 566 kts 35°
2026-05-05 02:58 26.38353 128.00854 39133 ft 566 kts 35°
2026-05-05 02:59 26.44392 128.06511 39129 ft 567 kts 35°
2026-05-05 02:59 26.50434 128.12183 39134 ft 567 kts 35°
2026-05-05 03:00 26.56478 128.17862 39130 ft 568 kts 35°
2026-05-05 03:00 26.62492 128.23521 39128 ft 568 kts 35°
2026-05-05 03:01 26.68539 128.29219 39143 ft 569 kts 35°
2026-05-05 03:01 26.74534 128.34875 39136 ft 570 kts 35°
2026-05-05 03:02 26.80522 128.40532 39130 ft 569 kts 35°
2026-05-05 03:02 26.86578 128.46263 39153 ft 570 kts 35°
2026-05-05 03:03 26.92633 128.52001 39129 ft 570 kts 35°
2026-05-05 03:03 26.98695 128.57753 39129 ft 571 kts 35°
2026-05-05 03:04 27.04719 128.63479 39153 ft 571 kts 35°
2026-05-05 03:04 27.10785 128.69251 39125 ft 572 kts 35°
2026-05-05 03:05 27.16858 128.75040 39131 ft 572 kts 35°
2026-05-05 03:05 27.22928 128.80835 39173 ft 572 kts 35°
2026-05-05 03:06 27.28998 128.86638 39134 ft 574 kts 35°
2026-05-05 03:06 27.35083 128.92463 39136 ft 574 kts 35°
2026-05-05 03:07 27.41169 128.98299 39150 ft 574 kts 35°
2026-05-05 03:07 27.47214 129.04105 39142 ft 575 kts 35°
2026-05-05 03:08 27.53191 129.10126 39139 ft 581 kts 43°
2026-05-05 03:08 27.58519 129.17019 39135 ft 583 kts 46°
2026-05-05 03:09 27.63701 129.24070 39148 ft 583 kts 47°
2026-05-05 03:09 27.68846 129.31137 39150 ft 583 kts 47°
2026-05-05 03:10 27.73976 129.38163 39148 ft 583 kts 46°
2026-05-05 03:10 27.79144 129.45229 39139 ft 584 kts 46°
2026-05-05 03:11 27.84317 129.52307 39140 ft 584 kts 46°
2026-05-05 03:11 27.89485 129.59393 39150 ft 584 kts 47°
2026-05-05 03:12 27.94655 129.66494 39141 ft 584 kts 47°
2026-05-05 03:12 27.99796 129.73567 39137 ft 584 kts 47°
2026-05-05 03:13 28.04952 129.80674 39148 ft 584 kts 46°
2026-05-05 03:13 28.09243 129.86596 39142 ft 585 kts 47°
2026-05-05 03:14 28.14404 129.93730 39137 ft 585 kts 47°
2026-05-05 03:14 28.19564 130.00875 39128 ft 585 kts 47°
2026-05-05 03:15 28.24681 130.07972 39131 ft 585 kts 47°
2026-05-05 03:15 28.29832 130.15131 39135 ft 585 kts 47°
2026-05-05 03:16 28.34981 130.22296 39155 ft 585 kts 47°
2026-05-05 03:16 28.40130 130.29475 39140 ft 586 kts 47°
2026-05-05 03:17 28.45282 130.36668 39138 ft 587 kts 47°
2026-05-05 03:17 28.50431 130.43872 39169 ft 587 kts 47°
2026-05-05 03:18 28.55558 130.51055 39142 ft 587 kts 47°
2026-05-05 03:18 28.60702 130.58278 39146 ft 587 kts 47°
2026-05-05 03:19 28.68419 130.69133 39152 ft 588 kts 47°
2026-05-05 03:19 28.73572 130.76395 39146 ft 589 kts 47°
2026-05-05 03:20 28.78725 130.83673 39147 ft 589 kts 47°
2026-05-05 03:20 28.83877 130.90962 39144 ft 590 kts 47°
2026-05-05 03:21 28.88994 130.98214 39145 ft 590 kts 47°
2026-05-05 03:21 28.94151 131.05536 39149 ft 590 kts 47°
2026-05-05 03:22 28.99269 131.12814 39155 ft 591 kts 47°
2026-05-05 03:22 29.04418 131.20149 39141 ft 591 kts 47°
2026-05-05 03:23 29.09559 131.27486 39146 ft 591 kts 47°
2026-05-05 03:23 29.14698 131.34834 39124 ft 591 kts 47°
2026-05-05 03:24 29.19795 131.42134 39144 ft 590 kts 47°
2026-05-05 03:24 29.24920 131.49488 39152 ft 590 kts 47°
2026-05-05 03:25 29.30039 131.56845 39119 ft 591 kts 47°
2026-05-05 03:25 29.35158 131.64217 39144 ft 590 kts 48°
2026-05-05 03:26 29.40269 131.71590 39143 ft 591 kts 47°
2026-05-05 03:26 29.45395 131.78995 39143 ft 592 kts 48°
2026-05-05 03:27 29.50480 131.86358 39145 ft 592 kts 48°
2026-05-05 03:27 29.55603 131.93789 39146 ft 592 kts 48°
2026-05-05 03:28 29.60718 132.01221 39139 ft 592 kts 48°
2026-05-05 03:28 29.65821 132.08651 39155 ft 592 kts 48°
2026-05-05 03:29 29.71004 132.16008 39148 ft 592 kts 46°
2026-05-05 03:29 29.76260 132.23313 39151 ft 591 kts 46°
2026-05-05 03:30 29.81457 132.30569 39158 ft 592 kts 46°
2026-05-05 03:30 29.86697 132.37936 39156 ft 593 kts 47°
2026-05-05 03:31 29.91915 132.45303 39151 ft 592 kts 47°
2026-05-05 03:31 29.97122 132.52667 39157 ft 593 kts 47°
2026-05-05 03:32 30.02341 132.60058 39159 ft 594 kts 47°
2026-05-05 03:32 30.07549 132.67447 39173 ft 594 kts 47°
2026-05-05 03:33 30.12733 132.74814 39162 ft 595 kts 47°
2026-05-05 03:33 30.17957 132.82252 39162 ft 595 kts 47°
2026-05-05 03:34 30.23183 132.89707 39168 ft 596 kts 47°
2026-05-05 03:34 30.28397 132.97160 39167 ft 597 kts 47°
2026-05-05 03:35 30.33621 133.04640 39180 ft 597 kts 47°
2026-05-05 03:35 30.38804 133.12077 39165 ft 597 kts 47°
2026-05-05 03:36 30.44032 133.19590 39170 ft 598 kts 47°
2026-05-05 03:36 30.49253 133.27111 39170 ft 597 kts 47°
2026-05-05 03:37 30.54462 133.34626 39173 ft 597 kts 47°
2026-05-05 03:37 30.59630 133.42097 39189 ft 597 kts 47°
2026-05-05 03:38 30.64841 133.49642 39175 ft 598 kts 47°
2026-05-05 03:38 30.70042 133.57190 39181 ft 598 kts 47°
2026-05-05 03:39 30.75239 133.64746 39179 ft 599 kts 47°
2026-05-05 03:39 30.80444 133.72328 39182 ft 599 kts 47°
2026-05-05 03:40 30.85580 133.79836 39185 ft 590 kts 47°
2026-05-05 03:40 30.90671 133.87274 39192 ft 586 kts 47°
2026-05-05 03:41 30.95753 133.94706 39196 ft 585 kts 47°
2026-05-05 03:41 31.00831 134.02148 39191 ft 586 kts 48°
2026-05-05 03:42 31.05873 134.09556 39195 ft 586 kts 48°
2026-05-05 03:42 31.10937 134.17014 39200 ft 586 kts 48°
2026-05-05 03:43 31.16000 134.24484 39193 ft 587 kts 48°
2026-05-05 03:43 31.21080 134.31993 39226 ft 587 kts 48°
2026-05-05 03:44 31.26124 134.39463 39200 ft 588 kts 48°
2026-05-05 03:44 31.31201 134.46996 39195 ft 589 kts 48°
2026-05-05 03:45 31.36258 134.54515 39201 ft 588 kts 48°
2026-05-05 03:45 31.41328 134.62067 39182 ft 589 kts 48°
2026-05-05 03:46 31.46384 134.69614 39217 ft 589 kts 48°
2026-05-05 03:46 31.51441 134.77176 39200 ft 590 kts 48°
2026-05-05 03:47 31.56461 134.84697 39195 ft 590 kts 48°
2026-05-05 03:47 31.61517 134.92289 39198 ft 591 kts 48°
2026-05-05 03:48 31.66580 134.99905 39191 ft 591 kts 49°
2026-05-05 03:48 31.71638 135.07531 39198 ft 591 kts 48°
2026-05-05 03:49 31.76890 135.14848 39198 ft 588 kts 43°
2026-05-05 03:49 31.82471 135.21874 39197 ft 587 kts 42°
2026-05-05 03:50 31.88042 135.28937 39200 ft 588 kts 43°
2026-05-05 03:50 31.93542 135.36078 39200 ft 588 kts 43°
2026-05-05 03:51 31.98972 135.43205 39201 ft 588 kts 44°
2026-05-05 03:51 32.04446 135.50408 39200 ft 589 kts 44°
2026-05-05 03:52 32.09925 135.57620 39200 ft 589 kts 44°
2026-05-05 03:52 32.15366 135.64791 39197 ft 589 kts 44°
2026-05-05 03:53 32.20838 135.72016 39197 ft 590 kts 44°
2026-05-05 03:53 32.26304 135.79248 39203 ft 590 kts 44°
2026-05-05 03:54 32.31772 135.86497 39192 ft 591 kts 44°
2026-05-05 03:54 32.37238 135.93759 39197 ft 591 kts 44°
2026-05-05 03:55 32.42704 136.01034 39202 ft 591 kts 44°
2026-05-05 03:55 32.48169 136.08320 39195 ft 591 kts 44°
2026-05-05 03:56 32.53600 136.15563 39196 ft 592 kts 44°
2026-05-05 03:56 32.59068 136.22871 39202 ft 592 kts 44°
2026-05-05 03:57 32.64532 136.30189 39203 ft 592 kts 44°
2026-05-05 03:57 32.69991 136.37518 39227 ft 592 kts 44°
2026-05-05 03:58 32.75448 136.44859 39206 ft 593 kts 44°
2026-05-05 03:58 32.80910 136.52220 39208 ft 593 kts 44°
2026-05-05 03:59 32.86371 136.59595 39211 ft 593 kts 44°
2026-05-05 03:59 32.90900 136.65723 39210 ft 594 kts 44°
2026-05-05 04:00 32.97229 136.74307 39214 ft 594 kts 44°
2026-05-05 04:00 33.02687 136.81703 39215 ft 594 kts 44°
2026-05-05 04:01 33.07259 136.87913 39210 ft 594 kts 44°
2026-05-05 04:01 33.12673 136.95285 39209 ft 594 kts 44°
2026-05-05 04:02 33.18115 137.02713 39216 ft 594 kts 44°
2026-05-05 04:02 33.23570 137.10172 39210 ft 596 kts 44°
2026-05-05 04:03 33.29029 137.17647 39211 ft 596 kts 44°
2026-05-05 04:03 33.34480 137.25141 39211 ft 596 kts 45°
2026-05-05 04:04 33.39889 137.32590 39210 ft 596 kts 45°
2026-05-05 04:04 33.45325 137.40091 39206 ft 596 kts 45°
2026-05-05 04:05 33.50770 137.47618 39208 ft 597 kts 45°
2026-05-05 04:05 33.56205 137.55145 39209 ft 597 kts 45°
2026-05-05 04:06 33.61401 137.62945 39217 ft 602 kts 57°
2026-05-05 04:06 33.65613 137.71576 39210 ft 604 kts 59°
2026-05-05 04:07 33.69576 137.80252 39214 ft 605 kts 59°
2026-05-05 04:07 33.72317 137.86334 39209 ft 606 kts 60°
2026-05-05 04:08 33.76314 137.95176 39208 ft 606 kts 59°
2026-05-05 04:08 33.80345 138.04052 38712 ft 601 kts 59°
2026-05-05 04:09 33.82335 138.08433 38148 ft 596 kts 59°
2026-05-05 04:09 33.84324 138.12819 37494 ft 594 kts 59°
2026-05-05 04:09 33.86300 138.17178 36858 ft 592 kts 59°
2026-05-05 04:09 33.88264 138.21519 36226 ft 590 kts 59°
2026-05-05 04:10 33.90227 138.25864 35572 ft 590 kts 59°
2026-05-05 04:10 33.92189 138.30214 34873 ft 590 kts 59°
2026-05-05 04:10 33.94139 138.34569 34192 ft 591 kts 59°
2026-05-05 04:10 33.96071 138.38914 33636 ft 585 kts 59°
2026-05-05 04:11 33.97957 138.43166 33159 ft 580 kts 59°
2026-05-05 04:11 33.99846 138.47430 32662 ft 575 kts 59°
2026-05-05 04:11 34.01728 138.51679 32159 ft 570 kts 60°
2026-05-05 04:11 34.03588 138.55879 31664 ft 566 kts 60°
2026-05-05 04:12 34.05433 138.60046 31168 ft 561 kts 60°
2026-05-05 04:12 34.07264 138.64189 30689 ft 557 kts 60°
2026-05-05 04:12 34.09079 138.68296 30198 ft 553 kts 61°
2026-05-05 04:12 34.10883 138.72387 29670 ft 548 kts 61°
2026-05-05 04:13 34.12661 138.76424 29201 ft 542 kts 61°
2026-05-05 04:13 34.14399 138.80378 28736 ft 537 kts 60°
2026-05-05 04:13 34.16147 138.84357 28269 ft 531 kts 60°
2026-05-05 04:13 34.17867 138.88277 27827 ft 526 kts 60°
2026-05-05 04:14 34.19570 138.92162 27361 ft 521 kts 60°
2026-05-05 04:14 34.21257 138.96015 26894 ft 516 kts 60°
2026-05-05 04:14 34.22922 138.99829 26461 ft 510 kts 60°
2026-05-05 04:14 34.24571 139.03605 26021 ft 506 kts 60°
2026-05-05 04:15 34.26187 139.07302 25565 ft 501 kts 60°
2026-05-05 04:15 34.27803 139.11025 25127 ft 497 kts 60°
2026-05-05 04:15 34.29246 139.14812 24649 ft 494 kts 64°
2026-05-05 04:15 34.30605 139.18611 24205 ft 489 kts 65°
2026-05-05 04:16 34.31916 139.22385 23768 ft 485 kts 66°
2026-05-05 04:16 34.33203 139.26142 23236 ft 479 kts 66°
2026-05-05 04:16 34.34465 139.29842 22790 ft 473 kts 66°
2026-05-05 04:16 34.35698 139.33454 22358 ft 466 kts 65°
2026-05-05 04:17 34.36926 139.37046 21921 ft 459 kts 65°
2026-05-05 04:17 34.38139 139.40591 21465 ft 452 kts 65°
2026-05-05 04:17 34.39332 139.44072 21031 ft 445 kts 65°
2026-05-05 04:17 34.40511 139.47514 20582 ft 437 kts 65°
2026-05-05 04:18 34.41668 139.50893 20160 ft 430 kts 65°
2026-05-05 04:18 34.42804 139.54216 19723 ft 423 kts 65°
2026-05-05 04:18 34.43922 139.57487 19303 ft 416 kts 65°
2026-05-05 04:18 34.45018 139.60700 18895 ft 409 kts 65°
2026-05-05 04:19 34.46096 139.63862 18471 ft 402 kts 65°
2026-05-05 04:19 34.47139 139.66923 18024 ft 394 kts 65°
2026-05-05 04:19 34.48337 139.69892 17629 ft 382 kts 54°
2026-05-05 04:19 34.49982 139.72277 17263 ft 367 kts 38°
2026-05-05 04:20 34.52012 139.74074 16887 ft 356 kts 29°
2026-05-05 04:20 34.54090 139.75652 16520 ft 348 kts 27°
2026-05-05 04:20 34.56142 139.77175 16155 ft 344 kts 27°
2026-05-05 04:20 34.58189 139.78685 15794 ft 343 kts 27°
2026-05-05 04:21 34.60224 139.80185 15429 ft 342 kts 27°
2026-05-05 04:21 34.62240 139.81670 15073 ft 340 kts 27°
2026-05-05 04:21 34.64260 139.83158 14710 ft 339 kts 27°
2026-05-05 04:21 34.66270 139.84633 14370 ft 340 kts 27°
2026-05-05 04:22 34.68459 139.85823 14230 ft 348 kts 12°
2026-05-05 04:22 34.70832 139.86448 14214 ft 350 kts
2026-05-05 04:22 34.73228 139.86954 14225 ft 350 kts
2026-05-05 04:22 34.75579 139.87449 14219 ft 349 kts
2026-05-05 04:23 34.77961 139.87956 14007 ft 344 kts
2026-05-05 04:23 34.80326 139.88461 13153 ft 348 kts
2026-05-05 04:23 34.82731 139.88977 12300 ft 353 kts
2026-05-05 04:23 34.85125 139.89494 11873 ft 344 kts
2026-05-05 04:24 34.87439 139.89998 11644 ft 330 kts
2026-05-05 04:24 34.89649 139.90480 11438 ft 317 kts
2026-05-05 04:24 34.91779 139.90943 11231 ft 304 kts
2026-05-05 04:25 34.95836 139.91823 10589 ft 292 kts
2026-05-05 04:25 34.97802 139.92248 10184 ft 289 kts
2026-05-05 04:25 34.99778 139.92675 9727 ft 288 kts
2026-05-05 04:25 35.01743 139.93101 9258 ft 286 kts
2026-05-05 04:26 35.03692 139.93525 8801 ft 284 kts
2026-05-05 04:26 35.05620 139.93944 8429 ft 279 kts
2026-05-05 04:26 35.07515 139.94356 8127 ft 275 kts
2026-05-05 04:26 35.09394 139.94766 7845 ft 274 kts
2026-05-05 04:27 35.11262 139.95172 7562 ft 273 kts
2026-05-05 04:27 35.13124 139.95575 7306 ft 271 kts
2026-05-05 04:27 35.14978 139.95979 7044 ft 270 kts
2026-05-05 04:27 35.16816 139.96383 6776 ft 268 kts
2026-05-05 04:28 35.18626 139.96780 6606 ft 258 kts
2026-05-05 04:28 35.20349 139.97160 6513 ft 245 kts
2026-05-05 04:28 35.21982 139.97519 6402 ft 232 kts
2026-05-05 04:28 35.23533 139.97826 6304 ft 219 kts
2026-05-05 04:29 35.25007 139.97874 6190 ft 208 kts 354°
2026-05-05 04:29 35.26413 139.97565 6116 ft 202 kts 342°
2026-05-05 04:29 35.27679 139.96935 5975 ft 192 kts 330°
2026-05-05 04:29 35.28820 139.96125 5705 ft 188 kts 330°
2026-05-05 04:30 35.29948 139.95321 5523 ft 196 kts 329°
2026-05-05 04:30 35.31194 139.94435 5428 ft 214 kts 330°
2026-05-05 04:30 35.32480 139.93539 5246 ft 210 kts 330°
2026-05-05 04:30 35.33752 139.92653 4797 ft 212 kts 330°
2026-05-05 04:31 35.35042 139.91746 4230 ft 213 kts 329°
2026-05-05 04:31 35.36313 139.90848 3686 ft 208 kts 330°
2026-05-05 04:31 35.37544 139.89993 3393 ft 199 kts 331°
2026-05-05 04:31 35.38715 139.89166 3190 ft 189 kts 331°
2026-05-05 04:32 35.39838 139.88368 3030 ft 186 kts 331°
2026-05-05 04:32 35.40963 139.87576 2876 ft 187 kts 333°
2026-05-05 04:32 35.42088 139.86789 2639 ft 186 kts 332°
2026-05-05 04:32 35.43178 139.86013 2390 ft 174 kts 333°
2026-05-05 04:33 35.44192 139.85292 2163 ft 165 kts 334°
2026-05-05 04:33 35.45160 139.84606 1942 ft 157 kts 333°
2026-05-05 04:33 35.46085 139.83948 1721 ft 151 kts 333°
2026-05-05 04:33 35.46994 139.83304 1538 ft 151 kts 332°
2026-05-05 04:34 35.47900 139.82660 1335 ft 151 kts 332°
2026-05-05 04:34 35.48804 139.82017 1126 ft 150 kts 332°
2026-05-05 04:34 35.49706 139.81377 936 ft 150 kts 331°
2026-05-05 04:34 35.50608 139.80735 744 ft 150 kts 331°
2026-05-05 04:35 35.51507 139.80086 539 ft 150 kts 330°
2026-05-05 04:35 35.52417 139.79432 376 ft 152 kts 332°
2026-05-05 04:35 35.53335 139.78787 159 ft 152 kts 331°
2026-05-05 04:35 35.54237 139.78152 33 ft 147 kts 331°
2026-05-05 04:36 35.54923 139.77670 31 ft 70 kts 330°
2026-05-05 04:36 35.55245 139.77383 31 ft 40 kts 306°
2026-05-05 04:36 35.55326 139.77194 29 ft 20 kts 288°
2026-05-05 04:36 35.55305 139.77048 29 ft 13 kts 225°
2026-05-05 04:37 35.55234 139.77067 29 ft 17 kts 149°
2026-05-05 04:37 35.55145 139.77089 29 ft 11 kts 215°
2026-05-05 04:37 35.55097 139.76998 29 ft 10 kts 240°
2026-05-05 04:37 35.55069 139.76938 29 ft 1 kts 240°
2026-05-05 04:38 35.55038 139.76919 29 ft 3 kts 181°
2026-05-05 04:38 35.55019 139.76938 29 ft 9 kts 146°
2026-05-05 04:38 35.55003 139.76949 29 ft 4 kts 148°
2026-05-05 04:38 35.54997 139.76954 29 ft 0 kts 149°